Weather History for Ireland West Airport Knock, Ireland

Change the Weather History Date:

Monday, July 22, 2013

  Actual Average Record
Temperature  
Mean Temperature 64 °F -  
Max Temperature 72 °F - - ()
Min Temperature 55 °F - - ()
Degree Days  
Heating Degree Days 2    
Growing Degree Days 14 (Base 50)    
Moisture  
Dew Point 59 °F    
Average Humidity 84    
Maximum Humidity 94    
Minimum Humidity 66    
Precipitation  
Precipitation 0.00 in - - ()
Sea Level Pressure  
Sea Level Pressure 29.95 in    
Wind  
Wind Speed 8 mph ()    
Max Wind Speed 15 mph    
Max Gust Speed -    
Visibility 6.4 miles    
Events      
T = Trace of Precipitation, MM = Missing Value Source: Averaged Metar Reports

Daily Weather History Graph

Daily Weather History Graph

Search for Another Location

Airport:

Trip Planner

Search our weather history database for the weather conditions in past years. The results will help you decide how hot, cold, wet, or windy it might be!

Date:

Astronomy

Jul. 22, 2013 Rise Set
Actual Time 5:33 AM IST 9:49 PM IST
Civil Twilight 4:45 AM IST 10:36 PM IST
Nautical Twilight 3:33 AM IST 11:47 PM IST
Astronomical Twilight 2:14 AM IST 1:09 AM IST
Moon 9:10 PM IST (7/22) 5:22 AM IST (7/22)
Length of Visible Light 17h 51m
Length of Day
16h 16m
Full, 100% of the Moon is Illuminated
Jul 22
Full
Jul 22
Full
Jul 29
Last Quarter
Aug 6
New
Aug 14
First Quarter

Hourly Weather History & Observations

Time (IST) Temp. Dew Point Humidity Pressure Visibility Wind Dir Wind Speed Gust Speed Precip Events Conditions
12:00 AM 59.0 °F 55.4 °F 88% 30.04 in - ESE 8.1 mph - N/A   Clear
12:30 AM 59.0 °F 55.4 °F 88% 30.04 in - ESE 9.2 mph - N/A   Clear
1:00 AM 58 °F 55 °F 86% 30.03 in 17 mi ESE 8.9 mph - -   Scattered Clouds
1:00 AM 57.2 °F 55.4 °F 94% 30.01 in - ESE 9.2 mph - N/A   Clear
2:00 AM 57.2 °F 55.4 °F 94% 30.01 in - ESE 6.9 mph - N/A   Clear
2:30 AM 57.2 °F 55.4 °F 94% 30.01 in - East 6.9 mph - N/A   Clear
3:00 AM 57.2 °F 55.4 °F 94% 30.01 in - East 6.9 mph - N/A   Clear
3:30 AM 55.4 °F 53.6 °F 94% 30.01 in - East 6.9 mph - N/A   Clear
4:00 AM 55.4 °F 53.6 °F 94% 30.01 in - East 6.9 mph - N/A   Clear
4:30 AM 55.4 °F 53.6 °F 94% 29.98 in - East 6.9 mph - N/A   Clear
6:00 AM 57.2 °F 55.4 °F 94% 29.98 in 5.0 mi East 5.8 mph - N/A   Mostly Cloudy
6:30 AM 57.2 °F 55.4 °F 94% 29.98 in 3.7 mi East 6.9 mph - N/A   Mostly Cloudy
7:00 AM 58 °F 56 °F 90% 29.97 in 5 mi ENE 6.7 mph - -   Mist
7:00 AM 59.0 °F 55.4 °F 88% 29.95 in 5.0 mi ENE 6.9 mph - N/A   Mostly Cloudy
7:30 AM 59.0 °F 57.2 °F 94% 29.95 in 4.3 mi East 6.9 mph - N/A   Mostly Cloudy
8:00 AM 60.8 °F 57.2 °F 88% 29.98 in 4.3 mi East 6.9 mph - N/A   Overcast
8:30 AM 60.8 °F 57.2 °F 88% 29.95 in 4.3 mi East 5.8 mph - N/A   Overcast
9:00 AM 60.8 °F 57.2 °F 88% 29.95 in 5.0 mi East 8.1 mph - N/A   Overcast
9:30 AM 60.8 °F 59.0 °F 94% 29.95 in 4.3 mi East 9.2 mph - N/A   Mostly Cloudy
10:00 AM 62.6 °F 59.0 °F 88% 29.95 in 4.3 mi East 8.1 mph - N/A   Mostly Cloudy
10:30 AM 62.6 °F 59.0 °F 88% 29.95 in 4.3 mi East 10.4 mph - N/A   Overcast
11:00 AM 66.2 °F 60.8 °F 83% 29.95 in 5.0 mi ESE 11.5 mph - N/A   Mostly Cloudy
11:30 AM 69.8 °F 60.8 °F 73% 29.95 in 5.0 mi ESE 11.5 mph - N/A   Mostly Cloudy
12:00 PM 69.8 °F 60.8 °F 73% 29.92 in 6.2 mi ESE 12.7 mph - N/A   Mostly Cloudy
12:30 PM 71.6 °F 62.6 °F 73% 29.92 in 6.2 mi ESE 15.0 mph - N/A   Mostly Cloudy
1:00 PM 70 °F 61 °F 66% 29.92 in 11 mi ESE 13.4 mph - -   Mostly Cloudy
1:00 PM 69.8 °F 60.8 °F 73% 29.92 in 6.2 mi ESE 12.7 mph - N/A   Mostly Cloudy
1:30 PM 69.8 °F 60.8 °F 73% 29.92 in 6.2 mi SE 13.8 mph - N/A   Overcast
2:00 PM 69.8 °F 62.6 °F 78% 29.92 in 6.2 mi ESE 12.7 mph - N/A   Mostly Cloudy
2:30 PM 68.0 °F 62.6 °F 83% 29.92 in 6.2 mi SE 11.5 mph - N/A   Mostly Cloudy
3:00 PM 69.8 °F 62.6 °F 78% 29.92 in 6.2 mi SSE 9.2 mph - N/A   Mostly Cloudy
3:30 PM 69.8 °F 62.6 °F 78% 29.92 in 6.2 mi SSE 9.2 mph - N/A   Mostly Cloudy
4:00 PM 71.6 °F 62.6 °F 73% 29.89 in 6.2 mi SSE 11.5 mph - N/A   Mostly Cloudy
4:30 PM 71.6 °F 62.6 °F 73% 29.89 in 6.2 mi SSE 9.2 mph - N/A   Mostly Cloudy
5:00 PM 71.6 °F 62.6 °F 73% 29.89 in 6.2 mi SSE 12.7 mph - N/A   Mostly Cloudy
5:30 PM 69.8 °F 60.8 °F 73% 29.89 in 6.2 mi South 9.2 mph - N/A   Mostly Cloudy
6:00 PM 69.8 °F 62.6 °F 78% 29.89 in 6.2 mi South 9.2 mph - N/A   Mostly Cloudy
6:30 PM 69.8 °F 62.6 °F 78% 29.89 in 6.2 mi South 8.1 mph - N/A   Mostly Cloudy
7:00 PM 68 °F 62 °F 75% 29.88 in 19 mi SSW 8.9 mph - -   Mostly Cloudy
7:00 PM 68.0 °F 62.6 °F 83% 29.89 in 6.2 mi SSW 9.2 mph - N/A   Mostly Cloudy